Weather History for KATW - April, 2012

Change the Weather History Date:

Monday, April 30, 2012

  Actual Average Record
Temperature  
Mean Temperature 44 °F -  
Max Temperature 50 °F 61 °F 84 °F (2013)
Min Temperature 39 °F 41 °F 22 °F (1956)
Degree Days  
Heating Degree Days 20    
Moisture  
Dew Point 43 °F    
Average Humidity 93    
Maximum Humidity 100    
Minimum Humidity 87    
Precipitation  
Precipitation 0.21 in - - ()
Sea Level Pressure  
Sea Level Pressure 29.99 in    
Wind  
Wind Speed 6 mph (ESE)    
Max Wind Speed 12 mph    
Max Gust Speed -    
Visibility 6 miles    
Events Rain    
Averages and records for this station are not official NWS values.
T = Trace of Precipitation, MM = Missing Value Source: NWS Daily Summary

Daily Weather History Graph

Daily Weather History Graph

Search for Another Location

Airport or City:

Trip Planner

Search our weather history database for the weather conditions in past years. The results will help you decide how hot, cold, wet, or windy it might be!

Date:

Astronomy

Apr. 30, 2012 Rise Set
Actual Time 5:45 AM CDT 7:57 PM CDT
Civil Twilight 5:14 AM CDT 8:29 PM CDT
Nautical Twilight 4:34 AM CDT 9:08 PM CDT
Astronomical Twilight 3:51 AM CDT 9:52 PM CDT
Moon 1:40 PM CDT (4/30) 2:24 AM CDT (4/30)
Length of Visible Light 15h 15m
Length of Day
14h 11m
Waxing Gibbous, 64% of the Moon is Illuminated
Apr 30
Waxing Gibbous
May 5
Full
May 12
Last Quarter
May 20
New
May 28
First Quarter

Hourly Weather History & Observations

Time (CDT) Temp. Windchill Dew Point Humidity Pressure Visibility Wind Dir Wind Speed Gust Speed Precip Events Conditions
12:15 AM 41.0 °F 38.0 °F 37.4 °F 87% 30.12 in 3.0 mi East 4.6 mph - 0.08 in Rain Light Rain
12:35 AM 41.0 °F 38.0 °F 37.4 °F 87% 30.11 in 5.0 mi ENE 4.6 mph - 0.14 in Rain Rain
12:55 AM 39.2 °F 34.2 °F 37.4 °F 93% 30.10 in 5.0 mi NE 6.9 mph - 0.16 in   Drizzle
1:15 AM 39.2 °F 35.0 °F 39.2 °F 100% 30.08 in 4.0 mi ENE 5.8 mph - 0.01 in   Heavy Drizzle
1:35 AM 41.0 °F 37.1 °F 39.2 °F 93% 30.07 in 3.0 mi ENE 5.8 mph - 0.02 in   Drizzle
1:55 AM 41.0 °F 36.4 °F 41.0 °F 100% 30.05 in 2.5 mi ENE 6.9 mph - 0.02 in   Drizzle
2:15 AM 41.0 °F 36.4 °F 41.0 °F 100% 30.05 in 2.5 mi East 6.9 mph - N/A Rain Rain
2:35 AM 41.0 °F 37.1 °F 41.0 °F 100% 30.05 in 3.0 mi East 5.8 mph - 0.01 in   Overcast
2:55 AM 42.8 °F 37.5 °F 41.0 °F 93% 30.03 in 2.5 mi ESE 9.2 mph - 0.01 in   Drizzle
3:15 AM 42.8 °F 37.5 °F 42.8 °F 100% 30.01 in 2.5 mi ESE 9.2 mph - 0.01 in Rain Rain
3:35 AM 42.8 °F 37.5 °F 41.0 °F 93% 30.02 in 4.0 mi ESE 9.2 mph - 0.01 in Rain Rain
3:55 AM 42.8 °F 38.0 °F 41.0 °F 93% 30.02 in 3.0 mi ESE 8.1 mph - 0.01 in   Light Drizzle
4:15 AM 42.8 °F 37.5 °F 41.0 °F 93% 30.00 in 4.0 mi ESE 9.2 mph - 0.01 in   Light Drizzle
4:35 AM 42.8 °F 38.6 °F 41.0 °F 93% 30.00 in 5.0 mi ESE 6.9 mph - 0.01 in   Overcast
4:55 AM 42.8 °F 36.6 °F 41.0 °F 93% 29.98 in 7.0 mi ESE 11.5 mph - 0.01 in   Overcast
5:15 AM 42.8 °F 37.0 °F 41.0 °F 93% 29.98 in 7.0 mi SE 10.4 mph - N/A   Overcast
6:45 AM 42.8 °F 38.0 °F 42.8 °F 100% 29.99 in 4.0 mi SE 8.1 mph - N/A   Overcast
7:45 AM 42.8 °F 39.3 °F 42.8 °F 100% 29.98 in 5.0 mi SE 5.8 mph - N/A   Overcast
8:45 AM 44.6 °F 40.2 °F 42.8 °F 93% 29.97 in 5.0 mi SSE 8.1 mph - N/A   Overcast
9:45 AM 46.4 °F 44.3 °F 44.6 °F 93% 29.94 in 5.0 mi South 4.6 mph - N/A   Overcast
10:45 AM 46.4 °F 44.3 °F 44.6 °F 93% 29.94 in 7.0 mi Variable 4.6 mph - N/A   Overcast
11:52 AM 48.2 °F - 44.6 °F 87% 29.93 in 7.0 mi Variable 4.6 mph - N/A   Overcast
12:45 PM 48.2 °F - 44.6 °F 87% 29.94 in 7.0 mi WNW 4.6 mph - N/A   Overcast
1:45 PM 48.2 °F - 46.4 °F 93% 29.92 in 7.0 mi North 6.9 mph - N/A   Overcast
2:45 PM 48.2 °F - 46.4 °F 93% 29.92 in 7.0 mi NNW 4.6 mph - N/A   Overcast
3:45 PM 50.0 °F - 46.4 °F 87% 29.92 in 7.0 mi West 4.6 mph - N/A   Overcast
4:45 PM 50.0 °F - 46.4 °F 87% 29.92 in 10.0 mi West 4.6 mph - N/A   Overcast
5:45 PM 48.2 °F - 46.4 °F 93% 29.92 in 10.0 mi Variable 4.6 mph - N/A   Overcast
7:45 PM 48.2 °F - 44.6 °F 87% 29.93 in 7.0 mi Variable 5.8 mph - N/A   Overcast
9:45 PM 48.2 °F - 44.6 °F 87% 29.95 in 7.0 mi Calm Calm - N/A   Overcast
10:45 PM 48.2 °F - 44.6 °F 87% 29.96 in 10.0 mi Calm Calm - N/A   Overcast
10:55 PM 46.4 °F 45.2 °F 44.6 °F 93% 29.95 in 10.0 mi SSW 3.5 mph - N/A   Overcast
11:15 PM 46.4 °F 45.2 °F 44.6 °F 93% 29.95 in 10.0 mi SW 3.5 mph - N/A   Overcast
11:35 PM 46.4 °F - 44.6 °F 93% 29.94 in 10.0 mi Calm Calm - N/A   Overcast
11:55 PM 46.4 °F - 44.6 °F 93% 29.95 in 10.0 mi Calm Calm - N/A   Overcast